Alliance, NE

4:29 AM MST on November 14, 2019 (GMT -0700)
Alliance Municipal

Weather History for KAIA - October, 2019

Change the Weather History Date:

Monday, October 21, 2019

  Actual Average Record
Temperature  
Mean Temperature 38 °F -  
Max Temperature 48 °F 61 °F 84 °F (1947)
Min Temperature 28 °F 32 °F 13 °F (1996)
Degree Days  
Heating Degree Days 27    
Moisture  
Dew Point 25 °F    
Average Humidity 61    
Maximum Humidity 85    
Minimum Humidity 33    
Precipitation  
Precipitation 0.00 in - - ()
Sea Level Pressure  
Sea Level Pressure 29.92 in    
Wind  
Wind Speed 23 mph (NW)    
Max Wind Speed 31 mph    
Max Gust Speed 44 mph    
Visibility 10 miles    
Events      
Averages and records for this station are not official NWS values.
T = Trace of Precipitation, MM = Missing Value Source: NWS Daily Summary

Daily Weather History Graph

Daily Weather History Graph

Search for Another Location

Airport or City:

Astronomy

Oct. 21, 2019 Rise Set
Actual Time 7:10 AM MDT 6:00 PM MDT
Civil Twilight 6:42 AM MDT 6:28 PM MDT
Nautical Twilight 6:09 AM MDT 7:01 PM MDT
Astronomical Twilight 5:37 AM MDT 7:33 PM MDT
Moon No Moon Rise 2:33 PM MDT (10/21)
Length of Visible Light 11h 46m
Length of Day
10h 50m
Waning Gibbous, 47% of the Moon is Illuminated
Oct 21
Waning Gibbous
Oct 27
New
Nov 4
First Quarter
Nov 12
Full
Nov 19
Last Quarter

Hourly Weather History & Observations

Time (MDT) Temp. Windchill Dew Point Humidity Pressure Visibility Wind Dir Wind Speed Gust Speed Precip Events Conditions
12:53 AM 37.0 °F 25.1 °F 30.9 °F 79% 29.74 in 10.0 mi NW 26.5 mph 35.7 mph N/A   Clear
1:53 AM 37.0 °F 24.3 °F 30.0 °F 76% 29.73 in 10.0 mi NW 31.1 mph 43.7 mph N/A   Clear
2:53 AM 36.0 °F 24.2 °F 30.0 °F 79% 29.76 in 10.0 mi NW 24.2 mph 36.8 mph N/A   Mostly Cloudy
3:53 AM 36.0 °F 23.5 °F 27.0 °F 70% 29.77 in 10.0 mi NW 27.6 mph 36.8 mph N/A   Clear
4:53 AM 35.1 °F 23.3 °F 27.0 °F 72% 29.81 in 10.0 mi NW 23.0 mph 31.1 mph N/A   Clear
5:53 AM 34.0 °F 21.8 °F 26.1 °F 73% 29.83 in 10.0 mi NW 23.0 mph 31.1 mph N/A   Clear
6:53 AM 32.0 °F 20.1 °F 25.0 °F 75% 29.86 in 10.0 mi NW 19.6 mph - N/A   Clear
7:53 AM 33.1 °F 21.9 °F 25.0 °F 72% 29.88 in 10.0 mi NW 18.4 mph 26.5 mph N/A   Clear
8:53 AM 36.0 °F 25.3 °F 25.0 °F 64% 29.90 in 10.0 mi NW 19.6 mph 27.6 mph N/A   Clear
9:53 AM 39.9 °F 29.7 °F 23.0 °F 51% 29.89 in 10.0 mi NW 23.0 mph 35.7 mph N/A   Clear
10:53 AM 42.1 °F 31.3 °F 21.9 °F 45% 29.90 in 10.0 mi NNW 29.9 mph 35.7 mph N/A   Clear
11:53 AM 44.1 °F 33.8 °F 19.9 °F 38% 29.90 in 10.0 mi NNW 31.1 mph 39.1 mph N/A   Clear
12:53 PM 46.0 °F 37.2 °F 21.9 °F 39% 29.91 in 10.0 mi NW 26.5 mph 35.7 mph N/A   Clear
1:53 PM 46.9 °F - 21.0 °F 36% 29.91 in 10.0 mi NNW 26.5 mph 36.8 mph N/A   Clear
2:53 PM 48.9 °F - 21.0 °F 33% 29.92 in 10.0 mi NNW 24.2 mph 29.9 mph N/A   Mostly Cloudy
4:53 PM 48.0 °F - 21.0 °F 34% 29.96 in 10.0 mi NNW 24.2 mph 33.4 mph N/A   Mostly Cloudy
5:53 PM 44.1 °F 36.8 °F 24.1 °F 45% 30.01 in 10.0 mi NNW 16.1 mph - N/A   Overcast
6:53 PM 41.0 °F 33.5 °F 25.0 °F 53% 30.04 in 10.0 mi WNW 13.8 mph - N/A   Mostly Cloudy
7:53 PM 39.0 °F 30.6 °F 24.1 °F 55% 30.06 in 10.0 mi NW 15.0 mph - N/A   Clear
8:53 PM 35.1 °F 26.9 °F 24.1 °F 64% 30.07 in 10.0 mi WNW 11.5 mph - N/A   Clear
9:53 PM 30.9 °F 22.2 °F 24.1 °F 76% 30.08 in 10.0 mi WNW 10.4 mph - N/A   Clear
10:53 PM 28.9 °F 18.6 °F 25.0 °F 85% 30.10 in 10.0 mi WNW 12.7 mph - N/A   Clear
11:53 PM 30.9 °F 21.7 °F 27.0 °F 85% 30.10 in 10.0 mi WNW 11.5 mph - N/A   Clear